| time (UTC) | temp C | wind direction | speed KPH | gust KPH | rain 1hr cm | rain 24hr cm | rain mn cm | humidity % | barometer mb |
| 20260503031030 | 12 | 0 | 0.0 | 3.2 | 0.00 | 0.00 | 0.00 | 54 | 1008.7 |
| 20260503030534 | 12 | 237 | 0.0 | 3.2 | 0.00 | 0.00 | 0.00 | 55 | 1008.7 |
| 20260503030048 | 12 | 248 | 0.0 | 3.2 | 0.00 | 0.00 | 0.00 | 54 | 1008.7 |
| 20260503025532 | 12 | 0 | 0.0 | 1.6 | 0.00 | 0.00 | 0.00 | 55 | 1008.8 |
| 20260503025034 | 12 | 0 | 0.0 | 1.6 | 0.00 | 0.00 | 0.00 | 56 | 1008.8 |
| 20260503024547 | 12 | 220 | 0.0 | 4.8 | 0.00 | 0.00 | 0.00 | 56 | 1008.9 |
| 20260503024033 | 13 | 270 | 0.0 | 4.8 | 0.00 | 0.00 | 0.00 | 55 | 1008.8 |
| 20260503023533 | 13 | 270 | 1.6 | 4.8 | 0.00 | 0.00 | 0.00 | 55 | 1008.8 |
| 20260503023042 | 13 | 217 | 0.0 | 4.8 | 0.00 | 0.00 | 0.00 | 55 | 1008.8 |
| 20260503022532 | 13 | 217 | 0.0 | 4.8 | 0.00 | 0.00 | 0.00 | 54 | 1008.9 |
| 20260503022032 | 13 | 0 | 0.0 | 1.6 | 0.00 | 0.00 | 0.00 | 54 | 1009.0 |
| 20260503021543 | 13 | 0 | 0.0 | 1.6 | 0.00 | 0.00 | 0.00 | 53 | 1009.0 |
| 20260503021032 | 13 | 0 | 0.0 | 1.6 | 0.00 | 0.00 | 0.00 | 52 | 1009.0 |
| 20260503020532 | 13 | 0 | 0.0 | 3.2 | 0.00 | 0.00 | 0.00 | 51 | 1009.0 |
| 20260503020043 | 13 | 248 | 1.6 | 4.8 | 0.00 | 0.00 | 0.00 | 50 | 1009.0 |
| 20260503015533 | 13 | 221 | 1.6 | 6.4 | 0.00 | 0.00 | 0.00 | 52 | 1008.9 |
| 20260503015033 | 13 | 236 | 1.6 | 6.4 | 0.00 | 0.00 | 0.00 | 51 | 1008.9 |
| 20260503014546 | 13 | 220 | 0.0 | 4.8 | 0.00 | 0.00 | 0.00 | 51 | 1008.9 |
| 20260503014033 | 13 | 0 | 0.0 | 1.6 | 0.00 | 0.00 | 0.00 | 52 | 1009.0 |
| 20260503013533 | 13 | 0 | 0.0 | 1.6 | 0.00 | 0.00 | 0.00 | 51 | 1009.0 |
| 20260503013045 | 13 | 0 | 0.0 | 1.6 | 0.00 | 0.00 | 0.00 | 53 | 1009.2 |
| 20260503012532 | 13 | 0 | 0.0 | 1.6 | 0.00 | 0.00 | 0.00 | 52 | 1009.1 |
| 20260503012032 | 13 | 0 | 0.0 | 0.0 | 0.00 | 0.00 | 0.00 | 51 | 1009.1 |
| 20260503011547 | 13 | 0 | 0.0 | 0.0 | 0.00 | 0.00 | 0.00 | 52 | 1009.2 |
| 20260503011034 | 13 | 0 | 0.0 | 0.0 | 0.00 | 0.00 | 0.00 | 51 | 1009.3 |
| 20260503010535 | 13 | 0 | 0.0 | 0.0 | 0.00 | 0.00 | 0.00 | 50 | 1009.0 |
| 20260503010045 | 13 | 0 | 0.0 | 0.0 | 0.00 | 0.00 | 0.00 | 51 | 1009.3 |
| 20260503005532 | 13 | 0 | 0.0 | 0.0 | 0.00 | 0.00 | 0.00 | 51 | 1009.3 |
| 20260503005034 | 13 | 0 | 0.0 | 0.0 | 0.00 | 0.00 | 0.00 | 51 | 1009.3 |
| 20260503004548 | 14 | 0 | 0.0 | 0.0 | 0.00 | 0.00 | 0.00 | 52 | 1009.4 |
| 20260503004033 | 14 | 0 | 0.0 | 0.0 | 0.00 | 0.00 | 0.00 | 52 | 1009.3 |
| 20260503003533 | 14 | 0 | 0.0 | 1.6 | 0.00 | 0.00 | 0.00 | 49 | 1009.3 |
| 20260503003046 | 14 | 0 | 0.0 | 1.6 | 0.00 | 0.00 | 0.00 | 49 | 1009.4 |
| 20260503002533 | 15 | 335 | 0.0 | 1.6 | 0.00 | 0.00 | 0.00 | 47 | 1009.4 |
| 20260503002034 | 15 | 0 | 0.0 | 1.6 | 0.00 | 0.00 | 0.00 | 47 | 1009.4 |
| 20260503001545 | 15 | 41 | 0.0 | 1.6 | 0.00 | 0.00 | 0.00 | 48 | 1009.6 |
| 20260503001034 | 15 | 0 | 0.0 | 1.6 | 0.00 | 0.00 | 0.00 | 46 | 1009.6 |
| 20260503000532 | 15 | 0 | 0.0 | 0.0 | 0.00 | 0.00 | 0.00 | 46 | 1009.6 |
| 20260503000050 | 15 | 0 | 0.0 | 0.0 | 0.00 | 0.00 | 0.00 | 46 | 1009.7 |
| 20260502235533 | 15 | 0 | 0.0 | 0.0 | 0.00 | 0.00 | 0.00 | 46 | 1009.7 |
| 20260502235035 | 15 | 0 | 0.0 | 0.0 | 0.00 | 0.00 | 0.00 | 46 | 1009.7 |
| 20260502234558 | 15 | 0 | 0.0 | 1.6 | 0.00 | 0.00 | 0.00 | 43 | 1009.8 |
| 20260502234034 | 15 | 0 | 0.0 | 3.2 | 0.00 | 0.00 | 0.00 | 42 | 1009.8 |
| 20260502233535 | 15 | 0 | 0.0 | 3.2 | 0.00 | 0.00 | 0.00 | 42 | 1009.8 |
| 20260502233043 | 15 | 250 | 0.0 | 3.2 | 0.00 | 0.00 | 0.00 | 41 | 1009.8 |
| 20260502232534 | 15 | 259 | 0.0 | 3.2 | 0.00 | 0.00 | 0.00 | 42 | 1009.8 |
| 20260502232034 | 15 | 261 | 0.0 | 4.8 | 0.00 | 0.00 | 0.00 | 43 | 1009.9 |
| 20260502231557 | 15 | 241 | 0.0 | 4.8 | 0.00 | 0.00 | 0.00 | 42 | 1009.9 |
| 20260502231033 | 15 | 0 | 0.0 | 4.8 | 0.00 | 0.00 | 0.00 | 41 | 1010.0 |
| 20260502230535 | 15 | 0 | 0.0 | 4.8 | 0.00 | 0.00 | 0.00 | 41 | 1010.1 |
| 20260502230047 | 16 | 244 | 0.0 | 4.8 | 0.00 | 0.00 | 0.00 | 42 | 1010.2 |
| 20260502225534 | 16 | 239 | 0.0 | 3.2 | 0.00 | 0.00 | 0.00 | 43 | 1010.2 |
| 20260502225033 | 16 | 246 | 0.0 | 3.2 | 0.00 | 0.00 | 0.00 | 42 | 1010.2 |
| 20260502224545 | 16 | 248 | 0.0 | 3.2 | 0.00 | 0.00 | 0.00 | 41 | 1010.4 |
| 20260502224034 | 16 | 258 | 0.0 | 3.2 | 0.00 | 0.00 | 0.00 | 41 | 1010.4 |
| 20260502223534 | 16 | 258 | 0.0 | 3.2 | 0.00 | 0.00 | 0.00 | 42 | 1010.5 |
| 20260502223046 | 16 | 251 | 0.0 | 3.2 | 0.00 | 0.00 | 0.00 | 41 | 1010.6 |
| 20260502222531 | 16 | 257 | 0.0 | 3.2 | 0.00 | 0.00 | 0.00 | 41 | 1010.6 |
| 20260502222031 | 16 | 185 | 0.0 | 3.2 | 0.00 | 0.00 | 0.00 | 41 | 1010.6 |
| 20260502221543 | 16 | 266 | 0.0 | 3.2 | 0.00 | 0.00 | 0.00 | 41 | 1010.7 |
| 20260502221030 | 16 | 93 | 0.0 | 3.2 | 0.00 | 0.00 | 0.00 | 41 | 1010.8 |
| 20260502220530 | 16 | 288 | 0.0 | 6.4 | 0.00 | 0.00 | 0.00 | 40 | 1010.8 |
| 20260502220045 | 16 | 0 | 0.0 | 6.4 | 0.00 | 0.00 | 0.00 | 38 | 1010.9 |
| 20260502215530 | 16 | 215 | 0.0 | 6.4 | 0.00 | 0.00 | 0.00 | 40 | 1010.9 |
| 20260502215030 | 17 | 248 | 1.6 | 6.4 | 0.00 | 0.00 | 0.00 | 37 | 1010.9 |
| 20260502214547 | 17 | 258 | 1.6 | 6.4 | 0.00 | 0.00 | 0.00 | 37 | 1011.0 |
| 20260502214030 | 18 | 265 | 3.2 | 6.4 | 0.00 | 0.00 | 0.00 | 39 | 1011.1 |
| 20260502213534 | 18 | 101 | 1.6 | 6.4 | 0.00 | 0.00 | 0.00 | 38 | 1011.1 |
| 20260502213058 | 18 | 85 | 1.6 | 6.4 | 0.00 | 0.00 | 0.00 | 38 | 1011.2 |
| 20260502212533 | 17 | 252 | 1.6 | 6.4 | 0.00 | 0.00 | 0.00 | 38 | 1011.3 |
| 20260502212034 | 17 | 225 | 1.6 | 6.4 | 0.00 | 0.00 | 0.00 | 38 | 1011.4 |
| 20260502211545 | 17 | 251 | 1.6 | 6.4 | 0.00 | 0.00 | 0.00 | 40 | 1011.4 |
| 20260502211031 | 17 | 256 | 3.2 | 6.4 | 0.00 | 0.00 | 0.00 | 36 | 1011.4 |
| 20260502210530 | 17 | 295 | 1.6 | 8.0 | 0.00 | 0.00 | 0.00 | 37 | 1011.6 |
| 20260502210055 | 17 | 258 | 3.2 | 8.0 | 0.00 | 0.00 | 0.00 | 36 | 1011.7 |
| 20260502205530 | 17 | 243 | 3.2 | 8.0 | 0.00 | 0.00 | 0.00 | 39 | 1011.7 |
| 20260502205034 | 17 | 248 | 1.6 | 6.4 | 0.00 | 0.00 | 0.00 | 38 | 1011.7 |
| 20260502204541 | 17 | 74 | 1.6 | 6.4 | 0.00 | 0.00 | 0.00 | 36 | 1011.8 |
| 20260502204030 | 17 | 256 | 1.6 | 6.4 | 0.00 | 0.00 | 0.00 | 43 | 1012.0 |
| 20260502203529 | 16 | 220 | 0.0 | 4.8 | 0.00 | 0.00 | 0.00 | 41 | 1012.0 |
| 20260502203047 | 16 | 6 | 1.6 | 8.0 | 0.00 | 0.00 | 0.00 | 35 | 1012.1 |
| 20260502202530 | 17 | 238 | 1.6 | 11.3 | 0.00 | 0.00 | 0.00 | 39 | 1012.3 |
| 20260502202030 | 17 | 270 | 3.2 | 11.3 | 0.00 | 0.00 | 0.00 | 39 | 1012.3 |
| 20260502201550 | 17 | 238 | 1.6 | 8.0 | 0.00 | 0.00 | 0.00 | 42 | 1012.3 |
| 20260502201032 | 17 | 17 | 1.6 | 8.0 | 0.00 | 0.00 | 0.00 | 39 | 1012.5 |
| 20260502200531 | 17 | 229 | 3.2 | 8.0 | 0.00 | 0.00 | 0.00 | 42 | 1012.6 |
| 20260502200057 | 16 | 32 | 1.6 | 9.7 | 0.00 | 0.00 | 0.00 | 41 | 1012.6 |
| 20260502195530 | 17 | 191 | 1.6 | 9.7 | 0.00 | 0.00 | 0.00 | 41 | 1012.8 |
| 20260502195030 | 17 | 253 | 1.6 | 6.4 | 0.00 | 0.00 | 0.00 | 40 | 1012.7 |
| 20260502194544 | 17 | 249 | 1.6 | 4.8 | 0.00 | 0.00 | 0.00 | 37 | 1012.8 |
| 20260502194030 | 17 | 11 | 1.6 | 4.8 | 0.00 | 0.00 | 0.00 | 37 | 1013.0 |
| 20260502193530 | 17 | 186 | 1.6 | 4.8 | 0.00 | 0.00 | 0.00 | 37 | 1013.0 |
| 20260502193050 | 17 | 257 | 1.6 | 4.8 | 0.00 | 0.00 | 0.00 | 37 | 1013.1 |
| 20260502192533 | 17 | 235 | 1.6 | 12.9 | 0.00 | 0.00 | 0.00 | 41 | 1013.2 |
| 20260502192033 | 16 | 120 | 1.6 | 12.9 | 0.00 | 0.00 | 0.00 | 43 | 1013.1 |
| 20260502191546 | 17 | 239 | 3.2 | 6.4 | 0.00 | 0.00 | 0.00 | 35 | 1013.2 |
| 20260502191035 | 16 | 309 | 1.6 | 6.4 | 0.00 | 0.00 | 0.00 | 43 | 1013.3 |
| 20260502190536 | 16 | 131 | 1.6 | 6.4 | 0.00 | 0.00 | 0.00 | 36 | 1013.4 |
| 20260502190044 | 16 | 270 | 1.6 | 6.4 | 0.00 | 0.00 | 0.00 | 40 | 1013.5 |
| 20260502185532 | 16 | 63 | 1.6 | 6.4 | 0.00 | 0.00 | 0.00 | 40 | 1013.6 |
| 20260502185033 | 16 | 44 | 1.6 | 8.0 | 0.00 | 0.00 | 0.00 | 37 | 1013.5 |
| 20260502184555 | 16 | 70 | 3.2 | 8.0 | 0.00 | 0.00 | 0.00 | 40 | 1013.6 |
| 20260502184031 | 16 | 271 | 3.2 | 8.0 | 0.00 | 0.00 | 0.00 | 37 | 1013.8 |
| 20260502183534 | 16 | 37 | 1.6 | 6.4 | 0.00 | 0.00 | 0.00 | 41 | 1013.8 |
| 20260502183046 | 16 | 248 | 1.6 | 8.0 | 0.00 | 0.00 | 0.00 | 35 | 1013.9 |
| 20260502182534 | 16 | 21 | 1.6 | 8.0 | 0.00 | 0.00 | 0.00 | 40 | 1014.0 |
| 20260502182036 | 16 | 252 | 1.6 | 8.0 | 0.00 | 0.00 | 0.00 | 41 | 1014.2 |
| 20260502181546 | 16 | 295 | 3.2 | 8.0 | 0.00 | 0.00 | 0.00 | 41 | 1014.1 |
| 20260502181033 | 16 | 251 | 3.2 | 8.0 | 0.00 | 0.00 | 0.00 | 40 | 1014.2 |
| 20260502180533 | 16 | 3 | 3.2 | 6.4 | 0.00 | 0.00 | 0.00 | 38 | 1014.4 |
| 20260502164030 | 15 | 41 | 1.6 | 6.4 | 0.00 | 0.00 | 0.00 | 43 | 1015.5 |
| 20260502163530 | 15 | 49 | 1.6 | 6.4 | 0.00 | 0.00 | 0.00 | 38 | 1015.5 |
| 20260502163046 | 14 | 246 | 1.6 | 4.8 | 0.00 | 0.00 | 0.00 | 41 | 1015.6 |
| 20260502162533 | 13 | 21 | 1.6 | 6.4 | 0.00 | 0.00 | 0.00 | 40 | 1015.6 |
| 20260502162033 | 13 | 61 | 1.6 | 9.7 | 0.00 | 0.00 | 0.00 | 40 | 1015.6 |
| 20260502161545 | 14 | 346 | 3.2 | 9.7 | 0.00 | 0.00 | 0.00 | 35 | 1015.8 |
| 20260502161034 | 14 | 37 | 3.2 | 6.4 | 0.00 | 0.00 | 0.00 | 37 | 1015.7 |
| 20260502160537 | 14 | 231 | 1.6 | 4.8 | 0.00 | 0.00 | 0.00 | 39 | 1015.8 |
| 20260502152031 | 12 | 257 | 1.6 | 4.8 | 0.00 | 0.00 | 0.00 | 43 | 1016.2 |
| 20260502151546 | 13 | 43 | 1.6 | 4.8 | 0.00 | 0.00 | 0.00 | 40 | 1016.2 |
| 20260502151031 | 13 | 347 | 0.0 | 4.8 | 0.00 | 0.00 | 0.00 | 50 | 1016.2 |
| 20260502150533 | 13 | 0 | 0.0 | 3.2 | 0.00 | 0.00 | 0.00 | 48 | 1016.2 |
| 20260502130537 | 6 | 0 | 0.0 | 3.2 | 0.00 | 0.00 | 0.00 | 73 | 1016.5 |
| 20260502123532 | 3 | 259 | 0.0 | 1.6 | 0.00 | 0.00 | 0.00 | 77 | 1016.5 |
| 20260502123051 | 2 | 0 | 0.0 | 1.6 | 0.00 | 0.00 | 0.00 | 78 | 1016.5 |
| 20260502122534 | 2 | 0 | 0.0 | 1.6 | 0.00 | 0.00 | 0.00 | 80 | 1016.5 |
| 20260502122035 | 1 | 0 | 0.0 | 0.0 | 0.00 | 0.00 | 0.00 | 82 | 1016.5 |
| 20260502121550 | 1 | 0 | 0.0 | 0.0 | 0.00 | 0.00 | 0.00 | 83 | 1016.6 |
| 20260502121031 | 1 | 0 | 0.0 | 0.0 | 0.00 | 0.00 | 0.00 | 83 | 1016.5 |
| 20260502120534 | 1 | 0 | 0.0 | 0.0 | 0.00 | 0.00 | 0.00 | 82 | 1016.5 |
| 20260502115533 | 1 | 0 | 0.0 | 0.0 | 0.00 | 0.00 | 0.00 | 81 | 1016.5 |
| 20260502115030 | 1 | 0 | 0.0 | 0.0 | 0.00 | 0.00 | 0.00 | 81 | 1016.5 |
| 20260502114545 | 1 | 0 | 0.0 | 0.0 | 0.00 | 0.00 | 0.00 | 80 | 1016.5 |
| 20260502114033 | 1 | 204 | 0.0 | 0.0 | 0.00 | 0.00 | 0.00 | 81 | 1016.5 |
| 20260502113533 | 0 | 204 | 0.0 | 0.0 | 0.00 | 0.00 | 0.00 | 82 | 1016.5 |
| 20260502113046 | 0 | 204 | 0.0 | 0.0 | 0.00 | 0.00 | 0.00 | 82 | 1016.5 |
| 20260502112530 | 0 | 204 | 0.0 | 0.0 | 0.00 | 0.00 | 0.00 | 83 | 1016.5 |
| 20260502112033 | 0 | 204 | 0.0 | 0.0 | 0.00 | 0.00 | 0.00 | 83 | 1016.5 |
| 20260502111559 | 0 | 0 | 0.0 | 0.0 | 0.00 | 0.00 | 0.00 | 83 | 1016.5 |
| 20260502111033 | 0 | 0 | 0.0 | 0.0 | 0.00 | 0.00 | 0.00 | 83 | 1016.5 |
| 20260502110533 | 0 | 0 | 0.0 | 1.6 | 0.00 | 0.00 | 0.00 | 83 | 1016.5 |
| 20260502110044 | 0 | 0 | 0.0 | 1.6 | 0.00 | 0.00 | 0.00 | 82 | 1016.5 |
| 20260502105533 | 0 | 204 | 0.0 | 0.0 | 0.00 | 0.00 | 0.00 | 82 | 1016.5 |
| 20260502105033 | 0 | 0 | 0.0 | 0.0 | 0.00 | 0.00 | 0.00 | 81 | 1016.5 |
| 20260502104547 | 0 | 0 | 0.0 | 0.0 | 0.00 | 0.00 | 0.00 | 81 | 1016.5 |
| 20260502104030 | 0 | 0 | 0.0 | 0.0 | 0.00 | 0.00 | 0.00 | 80 | 1016.5 |
| 20260502103530 | 0 | 0 | 0.0 | 0.0 | 0.00 | 0.00 | 0.00 | 79 | 1016.5 |
| 20260502103059 | 0 | 0 | 0.0 | 0.0 | 0.00 | 0.00 | 0.00 | 79 | 1016.4 |
| 20260502102534 | 0 | 0 | 0.0 | 0.0 | 0.00 | 0.00 | 0.00 | 79 | 1016.5 |
| 20260502102030 | 0 | 0 | 0.0 | 0.0 | 0.00 | 0.00 | 0.00 | 78 | 1016.5 |
| 20260502101546 | 0 | 0 | 0.0 | 0.0 | 0.00 | 0.00 | 0.00 | 78 | 1016.4 |
| 20260502101030 | 0 | 0 | 0.0 | 0.0 | 0.00 | 0.00 | 0.00 | 76 | 1016.4 |
| 20260502100530 | 0 | 0 | 0.0 | 0.0 | 0.00 | 0.00 | 0.00 | 76 | 1016.5 |
| 20260502091031 | 0 | 204 | 0.0 | 1.6 | 0.00 | 0.00 | 0.00 | 80 | 1016.5 |
| 20260502090530 | 0 | 203 | 0.0 | 0.0 | 0.00 | 0.00 | 0.00 | 80 | 1016.4 |
| 20260502071030 | 1 | 0 | 0.0 | 0.0 | 0.00 | 0.00 | 0.00 | 71 | 1016.6 |
| 20260502070531 | 2 | 0 | 0.0 | 0.0 | 0.00 | 0.00 | 0.00 | 70 | 1016.7 |
| 20260502070047 | 2 | 0 | 0.0 | 0.0 | 0.00 | 0.00 | 0.00 | 67 | 1016.7 |
| 20260502065531 | 2 | 0 | 0.0 | 0.0 | 0.00 | 0.00 | 0.00 | 67 | 1016.7 |
| 20260502065032 | 2 | 0 | 0.0 | 0.0 | 0.00 | 0.00 | 0.00 | 66 | 1016.7 |
| 20260502064543 | 2 | 0 | 0.0 | 0.0 | 0.00 | 0.00 | 0.00 | 66 | 1016.8 |
| 20260502064034 | 2 | 0 | 0.0 | 0.0 | 0.00 | 0.00 | 0.00 | 67 | 1016.8 |
| 20260502063534 | 2 | 0 | 0.0 | 0.0 | 0.00 | 0.00 | 0.00 | 69 | 1016.8 |
| 20260502063047 | 2 | 0 | 0.0 | 0.0 | 0.00 | 0.00 | 0.00 | 69 | 1016.9 |
| 20260502062533 | 1 | 0 | 0.0 | 0.0 | 0.00 | 0.00 | 0.00 | 70 | 1017.0 |
| 20260502062032 | 1 | 0 | 0.0 | 0.0 | 0.00 | 0.00 | 0.00 | 72 | 1017.0 |
| 20260502061546 | 1 | 0 | 0.0 | 0.0 | 0.00 | 0.00 | 0.00 | 74 | 1016.9 |
| 20260502061030 | 1 | 0 | 0.0 | 0.0 | 0.00 | 0.00 | 0.00 | 73 | 1017.0 |
| 20260502060534 | 1 | 0 | 0.0 | 0.0 | 0.00 | 0.00 | 0.00 | 73 | 1016.9 |
| 20260502060047 | 2 | 0 | 0.0 | 0.0 | 0.00 | 0.00 | 0.00 | 72 | 1017.0 |
| 20260502055533 | 2 | 0 | 0.0 | 0.0 | 0.00 | 0.00 | 0.00 | 70 | 1016.9 |
| 20260502055032 | 2 | 0 | 0.0 | 0.0 | 0.00 | 0.00 | 0.00 | 69 | 1016.9 |
| 20260502054545 | 1 | 0 | 0.0 | 0.0 | 0.00 | 0.00 | 0.00 | 70 | 1016.9 |
| 20260502054033 | 1 | 0 | 0.0 | 0.0 | 0.00 | 0.00 | 0.00 | 70 | 1016.9 |
| 20260502053530 | 1 | 0 | 0.0 | 0.0 | 0.00 | 0.00 | 0.00 | 71 | 1016.9 |
| 20260502053042 | 1 | 0 | 0.0 | 0.0 | 0.00 | 0.00 | 0.00 | 69 | 1017.0 |
| 20260502052530 | 1 | 0 | 0.0 | 0.0 | 0.00 | 0.00 | 0.00 | 68 | 1016.9 |
| 20260502052038 | 2 | 0 | 0.0 | 0.0 | 0.00 | 0.00 | 0.00 | 68 | 1016.9 |
| 20260502051545 | 2 | 0 | 0.0 | 0.0 | 0.00 | 0.00 | 0.00 | 68 | 1016.9 |
| 20260502051030 | 2 | 0 | 0.0 | 0.0 | 0.00 | 0.00 | 0.00 | 66 | 1016.9 |
| 20260502050530 | 3 | 0 | 0.0 | 0.0 | 0.00 | 0.00 | 0.00 | 64 | 1017.0 |
| 20260502050045 | 3 | 0 | 0.0 | 0.0 | 0.00 | 0.00 | 0.00 | 63 | 1016.9 |
| 20260502045533 | 3 | 0 | 0.0 | 0.0 | 0.00 | 0.00 | 0.00 | 63 | 1016.9 |
| 20260502045033 | 3 | 0 | 0.0 | 1.6 | 0.00 | 0.00 | 0.00 | 61 | 1017.0 |
| 20260502044548 | 3 | 0 | 0.0 | 1.6 | 0.00 | 0.00 | 0.00 | 60 | 1017.0 |
| 20260502044032 | 3 | 0 | 0.0 | 1.6 | 0.00 | 0.00 | 0.00 | 61 | 1017.0 |
| 20260502043534 | 3 | 0 | 0.0 | 0.0 | 0.00 | 0.00 | 0.00 | 63 | 1017.0 |
| 20260502043042 | 3 | 0 | 0.0 | 0.0 | 0.00 | 0.00 | 0.00 | 62 | 1017.0 |
| 20260502042533 | 3 | 0 | 0.0 | 0.0 | 0.00 | 0.00 | 0.00 | 62 | 1017.0 |
| 20260502042033 | 3 | 0 | 0.0 | 1.6 | 0.00 | 0.00 | 0.00 | 63 | 1017.0 |
| 20260502041544 | 3 | 0 | 0.0 | 1.6 | 0.00 | 0.00 | 0.00 | 66 | 1017.0 |
| 20260502041031 | 3 | 0 | 0.0 | 1.6 | 0.00 | 0.00 | 0.00 | 64 | 1017.0 |
| 20260502040533 | 4 | 0 | 0.0 | 1.6 | 0.00 | 0.00 | 0.00 | 64 | 1017.1 |
| 20260502040046 | 4 | 0 | 0.0 | 1.6 | 0.00 | 0.00 | 0.00 | 64 | 1017.2 |
| 20260502035532 | 3 | 219 | 0.0 | 1.6 | 0.00 | 0.00 | 0.00 | 66 | 1017.1 |
| 20260502035030 | 3 | 0 | 0.0 | 0.0 | 0.00 | 0.00 | 0.00 | 72 | 1017.0 |
| 20260502034542 | 3 | 0 | 0.0 | 0.0 | 0.00 | 0.00 | 0.00 | 74 | 1017.1 |
| 20260502034032 | 4 | 0 | 0.0 | 0.0 | 0.00 | 0.00 | 0.00 | 72 | 1017.0 |
| 20260502033533 | 4 | 0 | 0.0 | 0.0 | 0.00 | 0.00 | 0.00 | 69 | 1017.0 |
| 20260502033048 | 4 | 0 | 0.0 | 0.0 | 0.00 | 0.00 | 0.00 | 66 | 1016.8 |
| 20260502032532 | 4 | 0 | 0.0 | 3.2 | 0.00 | 0.00 | 0.00 | 64 | 1016.8 |
| 20260502032036 | 4 | 0 | 0.0 | 3.2 | 0.00 | 0.00 | 0.00 | 62 | 1016.9 |
| 20260502031543 | 4 | 219 | 1.6 | 3.2 | 0.00 | 0.00 | 0.00 | 63 | 1016.8 |